Time_in_sec,Mx,My,Mz
1323444848.45249081,-0.26101124,0.41733286,-0.83625925
1323444848.50052977,-0.26200551,0.41687772,-0.83783972
1323444848.54958463,-0.26124415,0.41586372,-0.83371270
1323444848.60051727,-0.26043019,0.41503003,-0.83544636
1323444848.64965010,-0.26176116,0.41721538,-0.83578968
1323444848.68955040,-0.26184523,0.41771257,-0.83719969
1323444848.74852204,-0.26225173,0.41914010,-0.83506560
1323444848.78865719,-0.26102680,0.41863567,-0.83410287
1323444848.84854460,-0.26222256,0.41817224,-0.83467484
1323444848.90051126,-0.25952700,0.41887066,-0.83504194
1323444848.94153595,-0.26207590,0.41867214,-0.83658195
1323444849.00058532,-0.26087809,0.41963971,-0.83818001
1323444849.04863811,-0.26185244,0.41867626,-0.83720696
1323444849.10207605,-0.26189801,0.41870829,-0.84026825
1323444849.14988112,-0.26126531,0.41906533,-0.84049106
1323444849.18956089,-0.26194653,0.41835666,-0.84116048
1323444849.24861574,-0.26249394,0.41908932,-0.84157801
1323444849.30153823,-0.26134658,0.42016342,-0.84177774
1323444849.34967327,-0.26033315,0.41883391,-0.84234995
1323444849.40050173,-0.26185310,0.41718262,-0.84420562
1323444849.44066405,-0.26165068,0.41707048,-0.84521323
1323444849.50459146,-0.26195642,0.41850218,-0.84358346
1323444849.54968047,-0.26248381,0.41850927,-0.84373981
1323444849.60052943,-0.26201677,0.41875425,-0.84460807
1323444849.64987874,-0.26115599,0.41947541,-0.84533072
1323444849.68861747,-0.26144269,0.41816014,-0.84597427
1323444849.74863029,-0.26161367,0.41973317,-0.84650457
1323444849.80085039,-0.26263386,0.41923627,-0.84400809
1323444849.84951186,-0.26190600,0.41839561,-0.84498179
1323444849.89815688,-0.26015258,0.41850868,-0.84603351
1323444849.94050145,-0.26159272,0.41888714,-0.84624255
1323444850.00129318,-0.26010203,0.41936442,-0.84731126
1323444850.04851246,-0.26067072,0.41923577,-0.84593964
1323444850.10142875,-0.26078036,0.42021897,-0.84773684
1323444850.14850664,-0.26116139,0.41901863,-0.84774911
1323444850.18957472,-0.26091790,0.41829717,-0.84811300
1323444850.24855208,-0.26149985,0.42072049,-0.84892678
1323444850.29801822,-0.26035330,0.42169780,-0.85141975
1323444850.34862924,-0.26069635,0.41757992,-0.84886038
1323444850.40165877,-0.26134157,0.41869208,-0.85094267
1323444850.43897343,-0.26202351,0.42002848,-0.85137188
1323444850.50164795,-0.26173702,0.41941914,-0.85096955
1323444850.54982233,-0.26275066,0.41882405,-0.85063851
1323444850.60050225,-0.26128742,0.41906598,-0.85221678
1323444850.64858508,-0.26131400,0.41871017,-0.85272551
1323444850.69065309,-0.25915772,0.41905707,-0.85350198
1323444850.74959636,-0.26074341,0.41956022,-0.85397470
1323444850.80064106,-0.26218459,0.42027640,-0.85189223
1323444850.84045553,-0.26105216,0.41846639,-0.85270941
1323444850.90166044,-0.26131988,0.42222306,-0.85466242
1323444850.94159889,-0.25897256,0.42027140,-0.85464746
1323444851.00167918,-0.26060507,0.42039925,-0.85371822
1323444851.04957724,-0.26181018,0.41943306,-0.85224807
1323444851.10354757,-0.25979742,0.42040879,-0.85545820
1323444851.15262556,-0.26138964,0.41983053,-0.85617852
1323444851.18872762,-0.26140359,0.41778827,-0.85667449
1323444851.25252581,-0.26001364,0.41944095,-0.85482597
1323444851.30156732,-0.26011699,0.42076051,-0.85420382
1323444851.34975600,-0.26212624,0.41716108,-0.85352361
1323444851.40064764,-0.25971794,0.41955161,-0.85417336
1323444851.45264554,-0.26020232,0.41967079,-0.85356355
1323444851.50452971,-0.25951028,0.42011350,-0.85047019
1323444851.55253530,-0.25984201,0.41818202,-0.84970999
1323444851.60156488,-0.25996920,0.41878435,-0.84959376
1323444851.64883661,-0.25922382,0.42068371,-0.84765488
1323444851.68954325,-0.25949475,0.41999024,-0.85021359
1323444851.75021648,-0.25885743,0.42188683,-0.84789824
1323444851.80052519,-0.26186097,0.41901183,-0.84638554
1323444851.84860754,-0.26086569,0.41912925,-0.84709650
1323444851.90247440,-0.26091230,0.42067859,-0.84545338
1323444851.94937205,-0.25931826,0.42101589,-0.84473127
1323444852.00152683,-0.25889727,0.41980281,-0.84431726
1323444852.05269599,-0.26106751,0.41741362,-0.84403676
1323444852.10054064,-0.25942937,0.41848761,-0.84471935
1323444852.14849067,-0.25950253,0.41850156,-0.84599787
1323444852.18894792,-0.26070765,0.41753536,-0.84452772
1323444852.24946308,-0.25994086,0.42125836,-0.84425735
1323444852.29834533,-0.26035500,0.41980040,-0.84261292
1323444852.34957242,-0.26059958,0.41871768,-0.84249115
1323444852.40052080,-0.25986332,0.41967982,-0.84309489
1323444852.44465899,-0.25972959,0.42015883,-0.84296352
1323444852.50052691,-0.26043910,0.42147714,-0.84160995
1323444852.54979968,-0.26183286,0.41956124,-0.84129030
1323444852.60854959,-0.26020876,0.41763064,-0.84258944
1323444852.64851451,-0.25954115,0.41918397,-0.84205419
1323444852.69000769,-0.25958133,0.41967279,-0.84269708
1323444852.74851632,-0.25998771,0.42088306,-0.84285539
1323444852.80165076,-0.26137799,0.41870257,-0.84023976
1323444852.84968591,-0.26117378,0.41834950,-0.84124559
1323444852.90163708,-0.26025614,0.41908318,-0.84323961
1323444852.94979644,-0.26037908,0.41833815,-0.84094709
1323444853.00052404,-0.26098028,0.42040426,-0.84214169
1323444853.04856324,-0.26044121,0.41883117,-0.84197354
1323444853.09801149,-0.25899723,0.41871589,-0.84393269
1323444853.14851141,-0.26037234,0.42016459,-0.84287131
1323444853.20069814,-0.25967926,0.41908997,-0.84448248
1323444853.24901080,-0.25975165,0.41920072,-0.84346765
1323444853.30048823,-0.26133078,0.41960567,-0.84610587
1323444853.34968257,-0.26032662,0.41873571,-0.84451538
1323444853.40154290,-0.25818428,0.41821992,-0.84337485
1323444853.44852614,-0.26017556,0.41885057,-0.84412563
1323444853.50054622,-0.25882578,0.41863298,-0.84774590
1323444853.54862785,-0.26021686,0.41753525,-0.84501058
1323444853.60153580,-0.26077980,0.41839117,-0.84568471
1323444853.64850354,-0.26001516,0.41946816,-0.84577793
1323444853.70066023,-0.25918385,0.41944984,-0.84484023
1323444853.74954605,-0.26106730,0.41933823,-0.84379560
1323444853.80173039,-0.26040822,0.41812646,-0.84375089
1323444853.84969139,-0.25977740,0.41776213,-0.84409606
1323444853.89789629,-0.25960597,0.41885880,-0.84549630
1323444853.95253086,-0.25960487,0.42066294,-0.84525424
1323444854.00096202,-0.25955462,0.41863176,-0.84689373
1323444854.04895353,-0.26193717,0.41767982,-0.84561557
1323444854.10070586,-0.26038605,0.41886735,-0.84553909
1323444854.15251589,-0.26001975,0.41910815,-0.84590310
1323444854.20052505,-0.25897875,0.41897631,-0.84584510
1323444854.25252414,-0.26089767,0.42067578,-0.84519768
1323444854.29945564,-0.26049420,0.41790229,-0.84528327
1323444854.34865427,-0.25994310,0.41765007,-0.84474152
1323444854.40156579,-0.25896525,0.41834894,-0.84341854
1323444854.44951010,-0.25964910,0.41896394,-0.84397012
1323444854.50167441,-0.25996000,0.42068389,-0.84693056
1323444854.54964995,-0.26153171,0.41776955,-0.84304523
1323444854.60156107,-0.26096848,0.41980055,-0.84200931
1323444854.64959621,-0.26157540,0.41970253,-0.84357113
1323444854.70176005,-0.25973421,0.41979885,-0.84308869
1323444854.74857163,-0.26025707,0.41920364,-0.84324050
1323444854.80153751,-0.26127630,0.41740671,-0.84315610
1323444854.84980321,-0.25971246,0.41787004,-0.84294629
1323444854.90150595,-0.25899351,0.41919634,-0.84380847
1323444854.94865012,-0.26000255,0.41896126,-0.84335226
1323444855.00149918,-0.26071757,0.42004001,-0.84212470
1323444855.04949927,-0.26150697,0.41836628,-0.84253836
1323444855.09835911,-0.25993320,0.41750455,-0.84231859
1323444855.15003657,-0.25853023,0.42014045,-0.84238797
1323444855.18848515,-0.26057121,0.41883257,-0.84198064
1323444855.24853849,-0.26041454,0.42014927,-0.84134424
1323444855.30050945,-0.26055008,0.41991118,-0.84147739
1323444855.34949327,-0.26133227,0.41845331,-0.83947080
1323444855.40149379,-0.25964370,0.41942075,-0.84155172
1323444855.44163227,-0.25876197,0.41929588,-0.84201229
1323444855.49863744,-0.25996327,0.41977245,-0.84029734
1323444855.54865384,-0.26156655,0.41989473,-0.83885670
1323444855.60164070,-0.26078197,0.41928387,-0.83880937
1323444855.64053869,-0.26080391,0.41928804,-0.83919293
1323444855.68853211,-0.26004174,0.42147148,-0.84146070
1323444855.75021911,-0.26058003,0.42314136,-0.83933556
1323444855.80053353,-0.26055369,0.42157257,-0.83906806
1323444855.84885693,-0.26066107,0.41952476,-0.83893192
1323444855.90023327,-0.25981581,0.42036915,-0.83991116
1323444855.94857717,-0.26037818,0.41821769,-0.84094620
1323444856.00172305,-0.26147208,0.41956255,-0.84178030
1323444856.04866076,-0.25994515,0.41832551,-0.84015858
1323444856.10053039,-0.25989741,0.41858035,-0.84155965
1323444856.14851475,-0.26088539,0.41846153,-0.84072083
1323444856.18915009,-0.26033598,0.41941255,-0.84006029
1323444856.24866700,-0.26001179,0.41942084,-0.84118956
1323444856.29794335,-0.25999716,0.42059761,-0.83852088
1323444856.34861636,-0.26052576,0.41783825,-0.83903992
1323444856.40053511,-0.26064643,0.41834241,-0.84108919
1323444856.43962073,-0.26047331,0.41941538,-0.84019524
1323444856.49799633,-0.25904477,0.42156523,-0.83987749
1323444856.54969192,-0.26107946,0.41941413,-0.83946383
1323444856.60071921,-0.26050448,0.41869956,-0.84082907
1323444856.65260887,-0.26045114,0.42015624,-0.84198350
1323444856.68977571,-0.26022497,0.41979897,-0.84260577
1323444856.74930382,-0.26055920,0.42133304,-0.83919412
1323444856.80056763,-0.25982505,0.41964918,-0.84016144
1323444856.85249877,-0.25909439,0.41940945,-0.84101182
1323444856.90099955,-0.26038685,0.42112967,-0.84300643
1323444856.94054866,-0.26146206,0.41919976,-0.84164971
1323444857.00107861,-0.26006550,0.42171657,-0.84184605
1323444857.05250525,-0.26143268,0.42015648,-0.84101772
1323444857.10453677,-0.25913176,0.42049921,-0.84153134
1323444857.15255213,-0.25966746,0.41966584,-0.84193707
1323444857.18967462,-0.25898892,0.41955635,-0.84368330
1323444857.24964333,-0.25936872,0.42112243,-0.84333295
1323444857.30152631,-0.25856578,0.42098925,-0.84290570
1323444857.34965730,-0.26202127,0.42053613,-0.84219962
1323444857.41368032,-0.25896955,0.42087585,-0.84318191
1323444857.44069076,-0.25770321,0.42146948,-0.84362656
1323444857.50444651,-0.26156077,0.41969973,-0.84331542
1323444857.54854965,-0.26185095,0.41982862,-0.84384203
1323444857.60068417,-0.26020405,0.41895294,-0.84234375
1323444857.65251780,-0.26178771,0.41996020,-0.84498644
1323444857.68962693,-0.26026517,0.42028779,-0.84324867
1323444857.74852705,-0.25932762,0.42051315,-0.84268916
1323444857.80149269,-0.26087674,0.42100933,-0.84252262
1323444857.84952307,-0.25828302,0.41989943,-0.84262758
1323444857.90050101,-0.25918645,0.42077354,-0.84472233
1323444857.94119382,-0.26092345,0.42041677,-0.84341305
1323444858.00242114,-0.25988516,0.42064631,-0.84335786
1323444858.04852343,-0.25947216,0.42147967,-0.84283137
1323444858.10159779,-0.26038492,0.42067149,-0.84529704
1323444858.15255451,-0.26160827,0.42018995,-0.84408617
1323444858.18850803,-0.25990888,0.41971183,-0.84615618
1323444858.24862862,-0.25916934,0.41966432,-0.84229213
1323444858.29838824,-0.26039967,0.42089152,-0.84326035
1323444858.34854054,-0.26016542,0.41945010,-0.84387445
1323444858.40167737,-0.25973317,0.41946113,-0.84538013
1323444858.44053340,-0.26043278,0.41945434,-0.84401655
1323444858.50092030,-0.25983348,0.42330620,-0.84439349
1323444858.54995823,-0.25956479,0.42039138,-0.84231895
1323444858.60089493,-0.26115283,0.41750348,-0.84098351
1323444858.64948225,-0.26164135,0.41875276,-0.84484237
1323444858.68948340,-0.26061231,0.41826230,-0.84503740
1323444858.74858928,-0.25974792,0.41968116,-0.84334344
1323444858.80064058,-0.26058766,0.41907629,-0.84223819
1323444858.84851909,-0.26062402,0.41982830,-0.84504920
1323444858.90082741,-0.25888646,0.41835725,-0.84430635
1323444858.95012641,-0.26147208,0.41838297,-0.84419328
1323444859.00069690,-0.26011938,0.41972861,-0.84756970
1323444859.04963589,-0.26024601,0.41850314,-0.84540141
1323444859.10121965,-0.25994682,0.41716963,-0.84486574
1323444859.14862514,-0.26147455,0.41948941,-0.84636778
1323444859.18897629,-0.25933853,0.41981685,-0.84523362
1323444859.24857283,-0.26123649,0.42067030,-0.84432411
1323444859.30066776,-0.25999591,0.41982538,-0.84539711
1323444859.34996676,-0.25966823,0.41956905,-0.84423035
1323444859.40165162,-0.25934494,0.41969776,-0.84536058
1323444859.44063330,-0.26145709,0.42008755,-0.84598875
1323444859.50195384,-0.25895378,0.42149764,-0.84509706
1323444859.54957128,-0.26122636,0.42126983,-0.84407294
1323444859.60052443,-0.26159924,0.41780576,-0.84649009
1323444859.64851332,-0.26034001,0.42032540,-0.84682137
1323444859.70150352,-0.25893363,0.42055482,-0.84712833
1323444859.74858904,-0.26048690,0.41790089,-0.84515542
1323444859.80155563,-0.26039517,0.41910964,-0.84566879
1323444859.85251284,-0.25979260,0.41959274,-0.84640384
1323444859.90312815,-0.25851715,0.41994405,-0.84671885
1323444859.95252180,-0.26018074,0.42031839,-0.84630281
1323444860.00053430,-0.26160094,0.41900900,-0.84637129
1323444860.05250335,-0.25987682,0.42030719,-0.84552145
1323444860.10050726,-0.26012769,0.41888815,-0.84781903
1323444860.14966321,-0.26015148,0.42031282,-0.84579146
1323444860.20050383,-0.25928527,0.42031121,-0.84650862
1323444860.24951124,-0.25904495,0.41728151,-0.84494460
1323444860.30453706,-0.26052055,0.41947109,-0.84555078
1323444860.35250306,-0.26061681,0.41886461,-0.84504193
1323444860.40050411,-0.26071754,0.41886047,-0.84453768
1323444860.44051170,-0.26116872,0.42019957,-0.84546399
1323444860.50051117,-0.25985026,0.42066300,-0.84501278
1323444860.54954648,-0.26152599,0.41993368,-0.84267801
1323444860.60155344,-0.26070371,0.41994044,-0.84416229
1323444860.64854336,-0.25991812,0.42017141,-0.84399348
1323444860.68951917,-0.25982761,0.41861373,-0.84486949
1323444860.74963021,-0.26002777,0.42115462,-0.84579062
1323444860.80155301,-0.26068535,0.42041811,-0.84378237
1323444860.84994698,-0.26029363,0.41921061,-0.84387976
1323444860.90211368,-0.25914088,0.41956195,-0.84407401
1323444860.95000792,-0.26060477,0.42018551,-0.84466839
1323444861.00155568,-0.26017442,0.41947517,-0.84629649
1323444861.04952645,-0.26137492,0.41886899,-0.84470117
1323444861.10394382,-0.26171443,0.41972899,-0.84600031
1323444861.14851618,-0.26066241,0.42007619,-0.84569031
1323444861.20062852,-0.26014492,0.42021462,-0.84795690
1323444861.24851012,-0.26059753,0.41804224,-0.84707409
1323444861.30052900,-0.26217425,0.41852033,-0.84512478
1323444861.34986472,-0.25982007,0.41935739,-0.84691346
1323444861.40164876,-0.26134801,0.41975257,-0.84865665
1323444861.44885635,-0.25856745,0.41983336,-0.84761286
1323444861.49832058,-0.26024309,0.41888678,-0.84757048
1323444861.54850817,-0.26009101,0.41984349,-0.84705919
1323444861.60052371,-0.26064223,0.41913339,-0.84772152
1323444861.64852405,-0.25969818,0.42044014,-0.84691447
1323444861.70052624,-0.26016879,0.41949743,-0.84846282
1323444861.74961686,-0.26151821,0.42024282,-0.84930670
1323444861.80165744,-0.26037973,0.41684455,-0.84794575
1323444861.84851480,-0.26152745,0.41952282,-0.84955692
1323444861.89814067,-0.26055959,0.41940492,-0.85077751
1323444861.94938564,-0.25903878,0.42093572,-0.84892094
1323444862.00054026,-0.26067251,0.41829711,-0.84835440
1323444862.04849744,-0.26053393,0.41988119,-0.85026973
1323444862.10053825,-0.25960764,0.41770288,-0.85020351
1323444862.14974976,-0.26035371,0.41902816,-0.84948915
1323444862.20163870,-0.26179186,0.41991073,-0.85186815
1323444862.24851584,-0.26095527,0.41938692,-0.84863257
1323444862.30053520,-0.26005822,0.41721418,-0.84907770
1323444862.34855247,-0.26257485,0.41953564,-0.84974182
1323444862.40164423,-0.26061726,0.42047516,-0.84938645
1323444862.44851184,-0.26031974,0.42034489,-0.84873199
1323444862.50156140,-0.26088661,0.41879573,-0.84977156
1323444862.54859400,-0.25993454,0.41805601,-0.84907693
1323444862.60156202,-0.26052326,0.41865289,-0.84796649
1323444862.64868116,-0.26094413,0.41964871,-0.85067284
1323444862.68981767,-0.25945175,0.42010233,-0.84944737
1323444862.75359678,-0.26075479,0.41973293,-0.84734964
1323444862.80054402,-0.26199818,0.41879740,-0.84881294
1323444862.84876060,-0.26085451,0.41939107,-0.84913683
1323444862.90051913,-0.25961477,0.42080843,-0.84767717
1323444862.94967890,-0.26090011,0.42060265,-0.84978515
1323444863.00052428,-0.26041710,0.41793427,-0.84846532
1323444863.04893398,-0.26090506,0.41853532,-0.84785908
1323444863.10456347,-0.25996739,0.41854343,-0.84959197
1323444863.15365005,-0.26008448,0.41974530,-0.84922463
1323444863.20054626,-0.26100379,0.41903529,-0.84952480
1323444863.24223137,-0.26009032,0.41779843,-0.84729946
1323444863.30064964,-0.26162997,0.41975960,-0.84905446
1323444863.34969306,-0.26053599,0.42055663,-0.84568679
1323444863.40155363,-0.26114473,0.42069951,-0.84725046
1323444863.44856286,-0.26144335,0.41902566,-0.84814698
1323444863.50198221,-0.26167962,0.41878340,-0.84777582
1323444863.54859495,-0.26063862,0.41865152,-0.84771788
1323444863.60164022,-0.26042441,0.41793567,-0.84859318
1323444863.64852953,-0.25878447,0.41876873,-0.84927392
1323444863.70064425,-0.25979069,0.41913456,-0.84869444
1323444863.74955297,-0.26014617,0.41862774,-0.84590656
1323444863.80109477,-0.26065147,0.41841340,-0.84797180
1323444863.84955287,-0.26006648,0.41851562,-0.84679347
1323444863.89849687,-0.25991619,0.41853368,-0.84869701
1323444863.94855666,-0.26097172,0.42081019,-0.84647709
1323444864.00154066,-0.26107010,0.41873729,-0.84391892
1323444864.04851055,-0.26002279,0.41776222,-0.84385461
1323444864.10158157,-0.26081818,0.41863906,-0.84632581
1323444864.14953923,-0.25862813,0.41837808,-0.84658629
1323444864.20153284,-0.25985858,0.41982254,-0.84526211
1323444864.24853611,-0.26089606,0.41851026,-0.84543705
1323444864.30230021,-0.26092723,0.41779447,-0.84607089
1323444864.34856749,-0.26069456,0.41851854,-0.84644562
1323444864.40164757,-0.26121002,0.41888425,-0.84634900
1323444864.44848776,-0.26078036,0.42021897,-0.84773684
1323444864.50064015,-0.26074490,0.41958740,-0.84492666
1323444864.54854751,-0.26129612,0.41887730,-0.84558904
1323444864.60150957,-0.26136309,0.41826528,-0.84456879
1323444864.64851451,-0.26134071,0.42093074,-0.84611583
1323444864.69012094,-0.26074210,0.42018834,-0.84480339
1323444864.74863982,-0.25979725,0.42041230,-0.84411603
1323444864.80063033,-0.26039699,0.42053014,-0.84325761
1323444864.84862971,-0.26158273,0.41970393,-0.84369898
1323444864.90051055,-0.26130512,0.42008194,-0.84559810
1323444864.94851732,-0.26081076,0.41959995,-0.84607732
1323444865.00126410,-0.26009518,0.41787294,-0.84283984
1323444865.04850364,-0.26093087,0.41945586,-0.84366155
1323444865.09804821,-0.26070225,0.41799217,-0.84210926
1323444865.14903450,-0.26167908,0.41813517,-0.84331077
1323444865.20152020,-0.26069921,0.41933814,-0.84415776
1323444865.24062514,-0.26096228,0.41799501,-0.84212357
1323444865.30049038,-0.25971878,0.41871330,-0.84295267
1323444865.34973216,-0.26176789,0.41966915,-0.84014052
1323444865.40051055,-0.26101315,0.42089167,-0.84265673
1323444865.44949937,-0.25890112,0.41953960,-0.84214908
1323444865.50051069,-0.26172489,0.41860169,-0.84178728
1323444865.54959464,-0.26068008,0.41991261,-0.84148455
1323444865.60062528,-0.26159590,0.41775844,-0.84190166
1323444865.64872599,-0.25975335,0.42040396,-0.84334892
1323444865.70055032,-0.26114598,0.42029220,-0.84278715
1323444865.74963856,-0.26199514,0.41704273,-0.84217334
1323444865.80166769,-0.26187068,0.41798133,-0.83987927
1323444865.84936810,-0.26124582,0.42016760,-0.84228200
1323444865.90448761,-0.26045945,0.41931579,-0.84223282
1323444865.95279741,-0.26024616,0.41989994,-0.84069604
1323444866.00151634,-0.26173335,0.41797853,-0.83974427
1323444866.05283833,-0.25991216,0.41880038,-0.83952296
1323444866.10166407,-0.26040205,0.41868007,-0.83903915
1323444866.14970899,-0.26171017,0.41956121,-0.84141099
1323444866.20163751,-0.26207656,0.41835809,-0.84116763
1323444866.25315619,-0.26308376,0.41788206,-0.84070963
1323444866.30049706,-0.26150629,0.41750079,-0.84036565
1323444866.35263419,-0.26158768,0.41763657,-0.84177291
